Buffalo, NY

7:51 PM EDT on April 25, 2017 (GMT -0400)
Buffalo Niagara International

Weather History for KBUF - June, 2012

Change the Weather History Date:

Wednesday, June 13, 2012

  Actual Average Record
Temperature  
Mean Temperature 61 °F 66 °F  
Max Temperature 70 °F 75 °F 90 °F (1949)
Min Temperature 51 °F 57 °F 41 °F (1875)
Degree Days  
Heating Degree Days 4 2  
Month to date heating degree days 47 42  
Since 1 June heating degree days 47 42  
Since 1 July heating degree days 5247 6595  
Cooling Degree Days 0 3  
Month to date cooling degree days 26 29  
Year to date cooling degree days 120 55  
Since 1 June cooling degree days 26 29  
Growing Degree Days 10 (Base 50)    
Moisture  
Dew Point 46 °F    
Average Humidity 59    
Maximum Humidity 77    
Minimum Humidity 40    
Precipitation  
Precipitation 0.00 in 0.13 in 1.30 in (1971)
Month to date precipitation 2.65 1.64  
Year to date precipitation 14.60 16.65  
Snow  
Snow 0.00 in 0.00 in 0.00 in ()
Month to date snowfall 0.0 0.0  
Since 1 June snowfall 0.0 0.0  
Since 1 July snowfall 36.7 94.7  
Snow Depth 0.00 in    
Sea Level Pressure  
Sea Level Pressure 30.13 in    
Wind  
Wind Speed 6 mph (NW)    
Max Wind Speed 16 mph    
Max Gust Speed 22 mph    
Visibility 10 miles    
Events      
T = Trace of Precipitation, MM = Missing Value Source: NWS Daily Summary

Daily Weather History Graph

Daily Weather History Graph

Search for Another Location

Airport or City:

Trip Planner

Search our weather history database for the weather conditions in past years. The results will help you decide how hot, cold, wet, or windy it might be!

Date:

Astronomy

Jun. 13, 2012 Rise Set
Actual Time 5:35 AM EDT 8:54 PM EDT
Civil Twilight 5:00 AM EDT 9:30 PM EDT
Nautical Twilight 4:14 AM EDT 10:15 PM EDT
Astronomical Twilight 3:18 AM EDT 11:12 PM EDT
Moon 1:54 AM EDT (6/13) 3:33 PM EDT (6/13)
Length of Visible Light 16h 30m
Length of Day
15h 19m
Waning Crescent, 29% of the Moon is Illuminated
Jun 13
Waning Crescent
Jun 19
New
Jun 26
First Quarter
Jul 3
Full
Jul 10
Last Quarter

Hourly Weather History & Observations

Time (EDT) Temp. Dew Point Humidity Pressure Visibility Wind Dir Wind Speed Gust Speed Precip Events Conditions
12:54 AM 60.1 °F 46.0 °F 60% 30.00 in 10.0 mi NW 11.5 mph 21.9 mph N/A   Clear
1:54 AM 57.0 °F 44.1 °F 62% 30.02 in 10.0 mi WNW 11.5 mph - N/A   Clear
2:54 AM 54.0 °F 41.0 °F 62% 30.04 in 10.0 mi NW 10.4 mph - N/A   Clear
3:54 AM 52.0 °F 41.0 °F 66% 30.05 in 10.0 mi West 4.6 mph - N/A   Clear
4:54 AM 51.1 °F 42.1 °F 71% 30.07 in 10.0 mi WNW 5.8 mph - N/A   Partly Cloudy
5:12 AM 51.8 °F 42.8 °F 71% 30.08 in 10.0 mi West 4.6 mph - N/A   Mostly Cloudy
5:54 AM 52.0 °F 44.1 °F 74% 30.09 in 10.0 mi West 4.6 mph - N/A   Mostly Cloudy
6:54 AM 53.1 °F 45.0 °F 74% 30.12 in 10.0 mi WNW 6.9 mph - N/A   Mostly Cloudy
7:54 AM 54.0 °F 46.0 °F 75% 30.14 in 10.0 mi West 6.9 mph - N/A   Mostly Cloudy
8:54 AM 55.0 °F 46.9 °F 74% 30.15 in 10.0 mi WNW 4.6 mph - N/A   Overcast
9:54 AM 55.9 °F 48.0 °F 75% 30.15 in 10.0 mi WSW 4.6 mph - N/A   Mostly Cloudy
10:54 AM 60.1 °F 48.9 °F 67% 30.15 in 10.0 mi NNW 6.9 mph - N/A   Mostly Cloudy
11:37 AM 60.8 °F 48.2 °F 63% 30.15 in 10.0 mi North 3.5 mph - N/A   Mostly Cloudy
11:54 AM 62.1 °F 48.0 °F 60% 30.15 in 10.0 mi North 3.5 mph - N/A   Mostly Cloudy
12:54 PM 64.9 °F 48.9 °F 56% 30.15 in 10.0 mi Variable 6.9 mph - N/A   Scattered Clouds
1:54 PM 66.0 °F 48.0 °F 52% 30.16 in 10.0 mi Variable 3.5 mph - N/A   Partly Cloudy
2:54 PM 68.0 °F 46.9 °F 47% 30.16 in 10.0 mi NNW 10.4 mph - N/A   Partly Cloudy
3:54 PM 69.1 °F 44.1 °F 40% 30.16 in 10.0 mi Calm Calm - N/A   Scattered Clouds
4:54 PM 69.1 °F 44.1 °F 40% 30.16 in 10.0 mi North 5.8 mph - N/A   Scattered Clouds
5:54 PM 68.0 °F 44.1 °F 42% 30.16 in 10.0 mi NNW 6.9 mph - N/A   Partly Cloudy
6:54 PM 68.0 °F 45.0 °F 43% 30.16 in 10.0 mi North 6.9 mph - N/A   Partly Cloudy
7:54 PM 66.9 °F 45.0 °F 45% 30.17 in 10.0 mi NNE 6.9 mph - N/A   Partly Cloudy
8:54 PM 64.0 °F 46.0 °F 52% 30.17 in 10.0 mi NNE 5.8 mph - N/A   Scattered Clouds
9:54 PM 61.0 °F 48.0 °F 62% 30.18 in 10.0 mi NNE 3.5 mph - N/A   Partly Cloudy
10:54 PM 59.0 °F 48.0 °F 67% 30.18 in 10.0 mi NE 4.6 mph - N/A   Partly Cloudy
11:54 PM 57.9 °F 48.0 °F 70% 30.19 in 10.0 mi ENE 4.6 mph - N/A   Scattered Clouds